Time,TemperatureF,DewpointF,PressureIn,WindDirection,WindDirectionDegrees,WindSpeedMPH,WindSpeedGustMPH,Humidity,HourlyPrecipIn,Conditions,Clouds,dailyrainin,SoftwareType,DateUTC
2013-08-08 00:01:00,74.1,69.7,29.94,West,270,0.0,0.0,86,0.00,,,0.00,WUHU21623XXSP,2013-08-08 04:01:00,
2013-08-08 00:06:00,74.1,69.7,29.94,West,270,0.0,0.0,86,0.00,,,0.00,WUHU21623XXSP,2013-08-08 04:06:00,
2013-08-08 00:11:00,74.1,69.7,29.94,West,270,0.0,0.0,86,0.00,,,0.00,WUHU21623XXSP,2013-08-08 04:11:00,
2013-08-08 00:16:00,73.9,69.5,29.94,West,270,0.0,0.0,86,0.00,,,0.00,WUHU21623XXSP,2013-08-08 04:16:00,
2013-08-08 00:21:00,31.8,28.1,29.94,West,270,0.0,0.0,86,0.00,,,0.00,WUHU21623XXSP,2013-08-08 04:21:00,
2013-08-08 00:26:00,73.8,69.3,29.95,West,270,0.0,0.0,86,0.00,,,0.00,WUHU21623XXSP,2013-08-08 04:26:00,
2013-08-08 00:31:00,73.6,69.2,29.95,West,270,0.0,0.0,86,0.00,,,0.00,WUHU21623XXSP,2013-08-08 04:31:00,
2013-08-08 00:36:00,73.6,68.8,29.95,West,270,0.0,0.0,85,0.00,,,0.00,WUHU21623XXSP,2013-08-08 04:36:00,
2013-08-08 00:41:00,73.2,68.5,29.94,West,270,0.0,0.0,85,0.00,,,0.00,WUHU21623XXSP,2013-08-08 04:41:00,
2013-08-08 00:46:00,73.2,68.5,29.95,West,270,0.0,0.0,85,0.00,,,0.00,WUHU21623XXSP,2013-08-08 04:46:00,
2013-08-08 00:51:00,73.2,68.5,29.95,West,270,0.0,0.0,85,0.00,,,0.00,WUHU21623XXSP,2013-08-08 04:51:00,
2013-08-08 00:56:00,73.2,68.5,29.95,West,270,0.0,0.0,85,0.00,,,0.00,WUHU21623XXSP,2013-08-08 04:56:00,
2013-08-08 01:01:00,73.2,68.5,29.95,West,270,0.0,0.0,85,0.00,,,0.00,WUHU21623XXSP,2013-08-08 05:01:00,
2013-08-08 01:06:00,72.5,67.7,29.95,West,270,0.0,0.0,85,0.00,,,0.00,WUHU21623XXSP,2013-08-08 05:06:00,
2013-08-08 01:11:00,72.5,67.7,29.96,West,270,0.0,0.0,85,0.00,,,0.00,WUHU21623XXSP,2013-08-08 05:11:00,
2013-08-08 01:16:00,72.5,67.7,29.96,West,270,0.0,0.0,85,0.00,,,0.00,WUHU21623XXSP,2013-08-08 05:16:00,
2013-08-08 01:21:00,72.1,67.4,29.96,West,270,0.0,0.0,85,0.00,,,0.00,WUHU21623XXSP,2013-08-08 05:21:00,
2013-08-08 01:26:00,72.1,67.4,29.96,West,270,0.0,0.0,85,0.00,,,0.00,WUHU21623XXSP,2013-08-08 05:26:00,
2013-08-08 01:31:00,72.0,67.2,29.96,West,270,0.0,0.0,85,0.00,,,0.00,WUHU21623XXSP,2013-08-08 05:31:00,
2013-08-08 01:36:00,72.0,67.2,29.96,West,270,0.0,0.0,85,0.00,,,0.00,WUHU21623XXSP,2013-08-08 05:36:00,
2013-08-08 01:41:00,72.0,67.2,29.96,West,270,0.0,0.0,85,0.00,,,0.00,WUHU21623XXSP,2013-08-08 05:41:00,
2013-08-08 01:46:00,72.0,67.2,29.96,West,270,0.0,0.0,85,0.00,,,0.00,WUHU21623XXSP,2013-08-08 05:46:00,
2013-08-08 01:50:00,72.0,67.2,29.96,North,0,0.0,0.0,85,0.00,,,0.00,WUHU21623XXSP,2013-08-08 05:50:00,
2013-08-08 01:51:00,72.0,67.2,29.96,West,270,0.0,0.0,85,0.00,,,0.00,WUHU21623XXSP,2013-08-08 05:51:00,
2013-08-08 01:56:00,72.0,67.2,29.96,North,0,0.0,0.0,85,0.00,,,0.00,WUHU21623XXSP,2013-08-08 05:56:00,
2013-08-08 06:14:00,68.5,64.5,29.96,North,0,0.0,0.0,87,0.00,,,0.00,WUHU21623XXSP,2013-08-08 10:14:00,
2013-08-08 06:19:00,68.5,64.5,29.96,West,270,0.0,0.0,87,0.00,,,0.00,WUHU21623XXSP,2013-08-08 10:19:00,
2013-08-08 06:24:00,68.4,64.3,29.96,West,270,0.0,0.0,87,0.00,,,0.00,WUHU21623XXSP,2013-08-08 10:24:00,
2013-08-08 06:29:00,68.4,64.3,29.95,West,270,0.0,0.0,87,0.00,,,0.00,WUHU21623XXSP,2013-08-08 10:29:00,
2013-08-08 06:34:00,68.4,64.3,29.95,West,270,0.0,0.0,87,0.00,,,0.00,WUHU21623XXSP,2013-08-08 10:34:00,
2013-08-08 06:39:00,68.2,64.1,29.95,West,270,0.0,0.0,87,0.00,,,0.00,WUHU21623XXSP,2013-08-08 10:39:00,
2013-08-08 06:44:00,68.2,64.1,29.95,West,270,0.0,0.0,87,0.00,,,0.00,WUHU21623XXSP,2013-08-08 10:44:00,
2013-08-08 06:49:00,68.2,64.1,29.95,West,270,0.0,0.0,87,0.00,,,0.00,WUHU21623XXSP,2013-08-08 10:49:00,
2013-08-08 06:54:00,68.2,64.1,29.95,West,270,0.0,0.0,87,0.00,,,0.00,WUHU21623XXSP,2013-08-08 10:54:00,
2013-08-08 06:59:00,68.2,64.1,29.95,West,270,0.0,0.0,87,0.00,,,0.00,WUHU21623XXSP,2013-08-08 10:59:00,
2013-08-08 07:04:00,68.2,64.1,29.95,North,0,0.0,0.0,87,0.00,,,0.00,WUHU21623XXSP,2013-08-08 11:04:00,
2013-08-08 14:24:00,67.5,62.2,30.00,North,0,0.0,0.0,83,0.00,,,0.00,WUHU21623XXSP,2013-08-08 18:24:00,
2013-08-08 14:29:00,67.3,62.0,29.99,SSE,157,0.0,0.0,83,0.00,,,0.00,WUHU21623XXSP,2013-08-08 18:29:00,
2013-08-08 14:34:00,67.4,62.1,29.99,SSE,157,0.0,0.0,83,0.00,,,0.00,WUHU21623XXSP,2013-08-08 18:34:00,
2013-08-08 14:39:00,67.2,62.2,29.99,SSE,157,0.0,0.0,84,0.00,,,0.00,WUHU21623XXSP,2013-08-08 18:39:00,
2013-08-08 14:44:00,67.1,62.2,29.99,SSE,157,0.0,0.0,84,0.00,,,0.00,WUHU21623XXSP,2013-08-08 18:44:00,
2013-08-08 14:49:00,66.9,61.9,29.99,SSE,157,0.0,0.0,84,0.00,,,0.00,WUHU21623XXSP,2013-08-08 18:49:00,
2013-08-08 14:54:00,67.0,62.0,29.99,SSE,157,0.0,0.0,84,0.00,,,0.00,WUHU21623XXSP,2013-08-08 18:54:00,
2013-08-08 14:59:00,66.8,61.9,29.99,SSE,157,0.0,0.0,84,0.00,,,0.00,WUHU21623XXSP,2013-08-08 18:59:00,
2013-08-08 15:04:00,66.6,62.0,29.99,SSE,157,0.0,0.0,85,0.00,,,0.00,WUHU21623XXSP,2013-08-08 19:04:00,
2013-08-08 15:09:00,66.6,61.9,29.98,SSE,157,0.0,0.0,85,0.00,,,0.00,WUHU21623XXSP,2013-08-08 19:09:00,
2013-08-08 15:14:00,66.7,62.1,29.98,SSE,157,0.0,0.0,85,0.00,,,0.00,WUHU21623XXSP,2013-08-08 19:14:00,
2013-08-08 15:19:00,66.9,62.6,29.97,SSE,157,0.0,0.0,86,0.02,,,0.02,WUHU21623XXSP,2013-08-08 19:19:00,
2013-08-08 15:24:00,66.9,62.6,29.97,SSE,157,0.0,0.0,86,0.02,,,0.02,WUHU21623XXSP,2013-08-08 19:24:00,
2013-08-08 15:29:00,67.1,62.8,29.98,ESE,112,0.0,0.0,86,0.08,,,0.08,WUHU21623XXSP,2013-08-08 19:29:00,
2013-08-08 15:34:00,67.4,63.4,29.98,ESE,112,0.0,0.0,87,0.10,,,0.10,WUHU21623XXSP,2013-08-08 19:34:00,
2013-08-08 15:39:00,67.6,63.6,29.97,ESE,112,0.0,0.0,87,0.10,,,0.10,WUHU21623XXSP,2013-08-08 19:39:00,
2013-08-08 15:44:00,67.8,63.8,29.97,ESE,112,0.0,0.0,87,0.10,,,0.10,WUHU21623XXSP,2013-08-08 19:44:00,
2013-08-08 15:49:00,68.1,64.1,29.97,ESE,112,0.0,0.0,87,0.10,,,0.10,WUHU21623XXSP,2013-08-08 19:49:00,
2013-08-08 15:54:00,68.3,64.6,29.97,ESE,112,0.0,0.0,88,0.10,,,0.10,WUHU21623XXSP,2013-08-08 19:54:00,
2013-08-08 16:00:00,68.8,65.1,29.98,ESE,112,0.0,0.0,88,0.10,,,0.10,WUHU21623XXSP,2013-08-08 20:00:00,
2013-08-08 16:05:00,69.1,65.4,29.97,ESE,112,0.0,0.0,88,0.10,,,0.10,WUHU21623XXSP,2013-08-08 20:05:00,
2013-08-08 16:10:00,69.5,65.8,29.97,ESE,112,0.0,0.0,88,0.10,,,0.10,WUHU21623XXSP,2013-08-08 20:10:00,
2013-08-08 16:15:00,69.8,66.1,29.97,ESE,112,0.0,0.0,88,0.10,,,0.10,WUHU21623XXSP,2013-08-08 20:15:00,
2013-08-08 16:20:00,70.3,66.6,29.97,ESE,112,0.0,0.0,88,0.08,,,0.10,WUHU21623XXSP,2013-08-08 20:20:00,
2013-08-08 16:25:00,70.6,66.9,29.97,ESE,112,0.0,0.0,88,0.02,,,0.10,WUHU21623XXSP,2013-08-08 20:25:00,
2013-08-08 16:30:00,70.9,67.2,29.97,ESE,112,0.0,0.0,88,0.02,,,0.10,WUHU21623XXSP,2013-08-08 20:30:00,
2013-08-08 16:35:00,71.2,67.5,29.97,ESE,112,0.0,0.0,88,0.00,,,0.10,WUHU21623XXSP,2013-08-08 20:35:00,
2013-08-08 16:40:00,71.5,67.8,29.97,ESE,112,0.0,0.0,88,0.00,,,0.10,WUHU21623XXSP,2013-08-08 20:40:00,
2013-08-08 16:45:00,72.1,68.3,29.97,ESE,112,0.0,0.0,88,0.00,,,0.10,WUHU21623XXSP,2013-08-08 20:45:00,
2013-08-08 16:50:00,72.4,68.6,29.97,ESE,112,0.0,0.0,88,0.00,,,0.10,WUHU21623XXSP,2013-08-08 20:50:00,
2013-08-08 16:55:00,72.9,69.1,29.97,ESE,112,0.0,0.0,88,0.00,,,0.10,WUHU21623XXSP,2013-08-08 20:55:00,
2013-08-08 17:00:00,73.0,69.0,29.97,ESE,112,0.0,0.0,87,0.00,,,0.10,WUHU21623XXSP,2013-08-08 21:00:00,
2013-08-08 17:05:00,73.0,69.0,29.97,ESE,112,0.0,0.0,87,0.00,,,0.10,WUHU21623XXSP,2013-08-08 21:05:00,
2013-08-08 17:10:00,73.0,69.0,29.97,ESE,112,0.0,0.0,87,0.00,,,0.10,WUHU21623XXSP,2013-08-08 21:10:00,
2013-08-08 17:15:00,73.0,69.0,29.97,ESE,112,0.0,0.0,87,0.00,,,0.10,WUHU21623XXSP,2013-08-08 21:15:00,
2013-08-08 17:20:00,73.0,69.0,29.97,ESE,112,0.0,0.0,87,0.00,,,0.10,WUHU21623XXSP,2013-08-08 21:20:00,
2013-08-08 17:25:00,73.0,69.0,29.97,ESE,112,0.0,0.0,87,0.00,,,0.10,WUHU21623XXSP,2013-08-08 21:25:00,
2013-08-08 17:31:00,73.0,69.0,29.97,ESE,112,0.0,0.0,87,0.00,,,0.10,WUHU21623XXSP,2013-08-08 21:31:00,
2013-08-08 17:36:00,72.9,68.8,29.97,ESE,112,0.0,0.0,87,0.00,,,0.10,WUHU21623XXSP,2013-08-08 21:36:00,
2013-08-08 17:41:00,72.9,68.8,29.97,ESE,112,0.0,0.0,87,0.00,,,0.10,WUHU21623XXSP,2013-08-08 21:41:00,
2013-08-08 17:46:00,73.0,69.0,29.97,ESE,112,0.0,0.0,87,0.00,,,0.10,WUHU21623XXSP,2013-08-08 21:46:00,
2013-08-08 17:51:00,73.0,69.0,29.97,ESE,112,0.0,0.0,87,0.00,,,0.10,WUHU21623XXSP,2013-08-08 21:51:00,
2013-08-08 17:56:00,73.0,69.0,29.97,ESE,112,0.0,0.0,87,0.00,,,0.10,WUHU21623XXSP,2013-08-08 21:56:00,
2013-08-08 18:01:00,73.0,69.0,29.97,ESE,112,0.0,0.0,87,0.00,,,0.10,WUHU21623XXSP,2013-08-08 22:01:00,
2013-08-08 18:06:00,73.0,69.0,29.97,ESE,112,0.0,0.0,87,0.00,,,0.10,WUHU21623XXSP,2013-08-08 22:06:00,
2013-08-08 18:11:00,73.0,69.0,29.97,ESE,112,0.0,0.0,87,0.00,,,0.10,WUHU21623XXSP,2013-08-08 22:11:00,
2013-08-08 18:13:00,73.0,69.0,29.97,North,0,0.0,0.0,87,0.00,,,0.10,WUHU21623XXSP,2013-08-08 22:13:00,
2013-08-08 18:17:00,73.0,69.0,29.97,ESE,112,0.0,0.0,87,0.00,,,0.10,WUHU21623XXSP,2013-08-08 22:17:00,
2013-08-08 18:22:00,73.0,69.0,29.97,North,0,0.0,0.0,87,0.00,,,0.10,WUHU21623XXSP,2013-08-08 22:22:00,
2013-08-08 18:39:00,72.7,68.6,29.97,ESE,112,0.0,0.0,87,0.00,,,0.10,WUHU21623XXSP,2013-08-08 22:39:00,
2013-08-08 18:44:00,72.7,68.6,29.97,ESE,112,0.0,0.0,87,0.00,,,0.10,WUHU21623XXSP,2013-08-08 22:44:00,
2013-08-08 18:49:00,72.7,68.6,29.97,ESE,112,0.0,0.0,87,0.00,,,0.10,WUHU21623XXSP,2013-08-08 22:49:00,
2013-08-08 18:55:00,72.7,68.6,29.97,ESE,112,0.0,0.0,87,0.00,,,0.10,WUHU21623XXSP,2013-08-08 22:55:00,
2013-08-08 19:00:00,72.7,68.6,29.97,ESE,112,0.0,0.0,87,0.00,,,0.10,WUHU21623XXSP,2013-08-08 23:00:00,
2013-08-08 19:05:00,72.7,68.6,29.97,ESE,112,0.0,0.0,87,0.00,,,0.10,WUHU21623XXSP,2013-08-08 23:05:00,
2013-08-08 21:47:00,70.9,66.8,29.99,North,0,0.0,0.0,87,0.00,,,0.10,WUHU21623XXSP,2013-08-09 01:47:00,
2013-08-08 21:52:00,70.9,66.8,29.99,ESE,112,0.0,0.0,87,0.00,,,0.10,WUHU21623XXSP,2013-08-09 01:52:00,
2013-08-08 21:57:00,70.9,66.8,29.99,ESE,112,0.0,0.0,87,0.00,,,0.10,WUHU21623XXSP,2013-08-09 01:57:00,
2013-08-08 22:02:00,70.9,66.8,29.99,ESE,112,0.0,0.0,87,0.00,,,0.10,WUHU21623XXSP,2013-08-09 02:02:00,